EW5043 Weather Reports


Display with metric or nautical units.
time (UTC)temp
F
wind
direction
speed
MPH
gust
MPH
rain 1hr
in
rain 24hr
in
rain mn
in
humidity
%
barometer
mb
20260510184556 49 320 10.0 0.0 0.00 0.00 0.02 28 1014.9
20260510183042 49 319 10.0 0.0 0.00 0.00 0.02 30 1014.7
20260510181633 49 318 9.0 0.0 0.00 0.00 0.02 31 1014.6
20260510180026 49 320 8.0 0.0 0.00 0.00 0.02 25 1014.3
20260510174514 48 328 9.0 0.0 0.00 0.00 0.02 23 1014.1
20260510173005 49 323 8.0 0.0 0.00 0.00 0.02 20 1014.1
20260510171657 48 323 8.0 0.0 0.00 0.00 0.02 23 1014.0
20260510170148 48 323 7.0 0.0 0.00 0.00 0.02 22 1014.0
20260510164541 48 334 9.0 0.0 0.00 0.00 0.02 27 1013.8
20260510163031 48 333 10.0 0.0 0.00 0.00 0.02 27 1013.8
20260510161622 48 325 10.0 0.0 0.00 0.00 0.02 20 1013.7
20260510160112 48 325 10.0 0.0 0.00 0.00 0.02 21 1013.7
20260510154605 48 322 10.0 0.0 0.00 0.00 0.02 23 1013.7
20260510153155 48 327 7.0 0.0 0.00 0.00 0.02 22 1013.8
20260510151545 48 308 7.0 0.0 0.00 0.00 0.02 23 1013.7
20260510150042 48 319 8.0 0.0 0.00 0.00 0.02 12 1013.2
20260510144628 47 321 8.0 0.0 0.00 0.00 0.02 6 1013.1
20260510143021 47 323 9.0 0.0 0.00 0.00 0.02 5 1012.8
20260510141520 47 319 9.0 0.0 0.00 0.00 0.02 4 1012.5
20260510140100 47 324 7.0 0.0 0.00 0.00 0.02 3 1012.3
20260510134554 48 329 7.0 0.0 0.00 0.00 0.02 7 1012.0
20260510133041 47 343 8.0 0.0 0.00 0.00 0.02 6 1011.9
20260510131532 47 304 8.0 0.0 0.00 0.00 0.02 1 1011.9
20260510130023 47 307 8.0 0.0 0.00 0.00 0.02 100 1011.9
20260510124514 48 317 8.0 0.0 0.00 0.00 0.02 100 1011.7
20260510123117 47 297 9.0 0.0 0.00 0.00 0.02 100 1011.4
20260510121556 48 318 7.0 0.0 0.00 0.00 0.02 100 1011.3
20260510120046 48 325 8.0 0.0 0.00 0.00 0.02 10 1010.9
20260510114541 49 311 8.0 0.0 0.00 0.00 0.02 100 1010.8
20260510113034 49 303 5.0 0.0 0.00 0.00 0.02 100 1010.3
20260510111520 49 302 6.0 0.0 0.00 0.00 0.02 100 1010.0
20260510110013 49 278 4.0 0.0 0.00 0.00 0.00 100 1010.0
20260510103059 49 271 3.0 0.0 0.00 0.00 0.00 100 1008.9
20260510101548 48 298 4.0 0.0 0.00 0.00 0.00 100 1008.9
20260510100134 48 284 4.0 0.0 0.00 0.00 0.00 100 1008.7
20260510094534 48 305 6.0 0.0 0.00 0.00 0.00 100 1008.2
20260510091506 49 321 5.0 0.0 0.00 0.00 0.00 100 1007.8
20260510084548 49 299 4.0 0.0 0.00 0.00 0.00 100 1007.5
20260510083039 49 302 5.0 0.0 0.00 0.00 0.00 100 1007.3
20260510081538 49 287 5.0 0.0 0.00 0.00 0.00 100 1007.2
20260510080022 50 296 4.0 0.0 0.00 0.00 0.00 100 1007.0
20260510074512 51 306 5.0 0.0 0.00 0.00 0.00 100 1006.7
20260510073003 53 303 3.0 0.0 0.00 0.00 0.00 100 1006.4
20260510071558 53 180 2.0 0.0 0.00 0.00 0.00 100 1006.4
20260510070048 53 180 2.0 0.0 0.00 0.00 0.00 100 1006.3
20260510064640 53 213 3.0 0.0 0.00 0.00 0.00 100 1005.9
20260510063031 53 206 4.0 0.0 0.00 0.00 0.00 100 1005.7
20260510061623 53 213 4.0 0.0 0.00 0.00 0.00 100 1005.6
20260510060013 53 211 5.0 0.0 0.00 0.00 0.00 100 1005.6
20260510054506 53 214 6.0 0.0 0.00 0.00 0.00 100 1005.4
20260510053055 53 202 5.0 0.0 0.00 0.00 0.00 100 1005.6
20260510051547 54 209 4.0 0.0 0.00 0.00 0.00 100 1005.5
20260510050038 54 208 4.0 0.0 0.00 0.00 0.00 100 1005.7
20260510044535 54 211 5.0 0.0 0.00 0.00 0.00 100 1005.6
20260510043023 54 198 5.0 0.0 0.00 0.00 0.00 100 1005.4
20260510041637 54 228 6.0 0.0 0.00 0.00 0.00 100 1005.1
20260510034557 55 211 5.0 0.0 0.00 0.00 0.18 100 1004.8
20260510033144 55 200 5.0 0.0 0.00 0.00 0.18 100 1004.8
20260510031549 55 213 6.0 0.0 0.00 0.00 0.18 100 1004.4
20260510030127 55 248 6.0 0.0 0.00 0.00 0.18 100 1004.4
20260510024516 54 229 5.0 0.0 0.00 0.00 0.18 100 1004.4
20260510023007 54 227 5.0 0.0 0.00 0.00 0.18 100 1003.9
20260510021558 54 223 9.0 0.0 0.00 0.00 0.18 100 1004.0
20260510020050 52 202 3.0 0.0 0.00 0.00 0.07 100 1004.6
20260510014552 51 289 4.0 0.0 0.00 0.00 0.04 100 1004.5
20260510013046 52 296 8.0 0.0 0.00 0.00 0.01 100 1004.6
20260510011529 54 329 11.0 0.0 0.00 0.00 0.00 100 1004.4
20260510010019 61 204 8.0 0.0 0.00 0.00 0.00 100 1002.5
20260510004509 61 197 12.0 0.0 0.00 0.00 0.00 100 1002.3
20260510003101 62 193 14.0 0.0 0.00 0.00 0.00 100 1002.1
20260510001552 62 203 7.0 0.0 0.00 0.00 0.00 4 1002.2
20260510000043 63 192 8.0 0.0 0.00 0.00 0.00 17 1002.0
20260509234634 63 191 8.0 0.0 0.00 0.00 0.00 23 1001.9
20260509233024 63 198 9.0 0.0 0.00 0.00 0.00 25 1001.9
20260509230006 63 194 9.0 0.0 0.00 0.00 0.00 22 1002.0
20260509224658 64 194 8.0 0.0 0.00 0.00 0.00 28 1002.2
20260509223055 64 198 8.0 0.0 0.00 0.00 0.00 31 1002.0
20260509221542 64 226 9.0 0.0 0.00 0.00 0.00 33 1002.0
20260509220031 65 202 9.0 0.0 0.00 0.00 0.00 40 1002.2
20260509214621 64 207 12.0 0.0 0.00 0.00 0.00 35 1002.0
20260509213012 64 193 11.0 0.0 0.00 0.00 0.00 39 1002.1
20260509211504 65 207 11.0 0.0 0.00 0.00 0.00 42 1002.4
20260509210105 65 211 9.0 0.0 0.00 0.00 0.00 45 1002.4
20260509204542 65 200 9.0 0.0 0.00 0.00 0.00 45 1002.4
20260509203035 64 212 9.0 0.0 0.00 0.00 0.00 38 1002.5
20260509201527 64 196 11.0 0.0 0.00 0.00 0.00 37 1002.5
20260509200015 64 196 9.0 0.0 0.00 0.00 0.00 38 1002.7
20260509194504 63 189 10.0 0.0 0.00 0.00 0.00 32 1002.8
20260509193157 63 189 12.0 0.0 0.00 0.00 0.00 36 1003.2
20260509191547 63 195 11.0 0.0 0.00 0.00 0.00 26 1003.3
20260509190046 62 202 10.0 0.0 0.00 0.00 0.00 29 1003.6